EW6167 Weather Reports


Display with metric or nautical units.
time (UTC)temp
F
wind
direction
speed
MPH
gust
MPH
rain 1hr
in
rain 24hr
in
rain mn
in
humidity
%
barometer
mb
20260503210058 64 337 7.0 0.0 0.00 0.00 0.00 27 1007.4
20260503205513 64 355 7.0 0.0 0.00 0.00 0.00 26 1007.5
20260503205027 64 355 6.0 0.0 0.00 0.00 0.00 26 1007.7
20260503204545 64 344 5.0 0.0 0.00 0.00 0.00 26 1007.6
20260503204059 64 355 4.0 0.0 0.00 0.00 0.00 25 1007.7
20260503203509 64 47 3.0 0.0 0.00 0.00 0.00 27 1007.9
20260503203025 63 30 6.0 0.0 0.00 0.00 0.00 25 1008.0
20260503202542 63 33 7.0 0.0 0.00 0.00 0.00 26 1008.1
20260503202101 63 27 8.0 0.0 0.00 0.00 0.00 26 1008.2
20260503201514 64 350 6.0 0.0 0.00 0.00 0.00 25 1008.2
20260503201028 64 26 5.0 0.0 0.00 0.00 0.00 26 1008.2
20260503200544 65 355 3.0 0.0 0.00 0.00 0.00 27 1008.2
20260503200104 64 303 5.0 0.0 0.00 0.00 0.00 26 1008.2
20260503195510 64 342 8.0 0.0 0.00 0.00 0.00 26 1008.3
20260503195031 64 312 8.0 0.0 0.00 0.00 0.00 26 1008.4
20260503194544 64 321 7.0 0.0 0.00 0.00 0.00 28 1008.5
20260503194103 63 11 5.0 0.0 0.00 0.00 0.00 30 1008.5
20260503193513 63 351 7.0 0.0 0.00 0.00 0.00 29 1008.6
20260503193028 63 348 9.0 0.0 0.00 0.00 0.00 28 1008.7
20260503192542 63 302 9.0 0.0 0.00 0.00 0.00 29 1008.7
20260503192101 64 22 8.0 0.0 0.00 0.00 0.00 30 1008.8
20260503191527 64 346 4.0 0.0 0.00 0.00 0.00 30 1008.7
20260503191035 63 69 4.0 0.0 0.00 0.00 0.00 29 1008.8
20260503190552 63 132 5.0 0.0 0.00 0.00 0.00 30 1008.8
20260503190000 62 305 7.0 0.0 0.00 0.00 0.00 29 1008.9
20260503185514 63 9 9.0 0.0 0.00 0.00 0.00 29 1008.9
20260503185032 63 360 7.0 0.0 0.00 0.00 0.00 29 1008.9
20260503184547 63 333 6.0 0.0 0.00 0.00 0.00 29 1009.0
20260503184101 63 355 5.0 0.0 0.00 0.00 0.00 32 1009.0
20260503183508 63 5 5.0 0.0 0.00 0.00 0.00 31 1009.1
20260503183022 63 42 6.0 0.0 0.00 0.00 0.00 30 1009.1
20260503182537 62 24 6.0 0.0 0.00 0.00 0.00 31 1009.2
20260503182050 62 9 6.0 0.0 0.00 0.00 0.00 31 1009.3
20260503181605 62 9 6.0 0.0 0.00 0.00 0.00 31 1009.2
20260503181017 62 355 5.0 0.0 0.00 0.00 0.00 31 1009.4
20260503180536 62 48 4.0 0.0 0.00 0.00 0.00 34 1009.6
20260503180100 62 35 5.0 0.0 0.00 0.00 0.00 33 1009.6
20260503175606 62 65 6.0 0.0 0.00 0.00 0.00 32 1009.8
20260503175013 62 307 5.0 0.0 0.00 0.00 0.00 34 1009.9
20260503174534 61 345 5.0 0.0 0.00 0.00 0.00 34 1009.9
20260503174052 61 340 5.0 0.0 0.00 0.00 0.00 34 1010.0
20260503173604 61 316 6.0 0.0 0.00 0.00 0.00 34 1010.0
20260503173016 61 57 5.0 0.0 0.00 0.00 0.00 33 1010.0
20260503172532 60 46 4.0 0.0 0.00 0.00 0.00 33 1010.2
20260503172049 60 323 5.0 0.0 0.00 0.00 0.00 34 1010.2
20260503171502 60 350 4.0 0.0 0.00 0.00 0.00 33 1010.2
20260503171017 60 355 3.0 0.0 0.00 0.00 0.00 36 1010.3
20260503170531 59 33 3.0 0.0 0.00 0.00 0.00 35 1010.4
20260503160113 56 161 2.0 0.0 0.00 0.00 0.00 41 1011.0
20260503150504 51 190 8.0 0.0 0.00 0.00 0.00 47 1011.9
20260503131041 36 190 7.0 0.0 0.00 0.00 0.00 73 1012.3
20260503130559 35 175 6.0 0.0 0.00 0.00 0.00 74 1012.3
20260503110505 35 187 7.0 0.0 0.00 0.00 0.00 74 1012.3
20260503090512 35 185 7.0 0.0 0.00 0.00 0.00 75 1011.9
20260503081539 36 191 6.0 0.0 0.00 0.00 0.00 74 1011.9
20260503081058 36 188 6.0 0.0 0.00 0.00 0.00 74 1012.0
20260503080509 36 192 6.0 0.0 0.00 0.00 0.00 75 1012.0
20260503072521 35 188 5.0 0.0 0.00 0.00 0.00 77 1012.2
20260503072038 35 179 5.0 0.0 0.00 0.00 0.00 77 1012.0
20260503071556 35 194 4.0 0.0 0.00 0.00 0.00 76 1012.1
20260503071000 36 194 4.0 0.0 0.00 0.00 0.00 75 1012.1
20260503070518 36 194 4.0 0.0 0.00 0.00 0.00 75 1012.1
20260503055044 38 194 4.0 0.0 0.00 0.00 0.00 70 1011.8
20260503054621 39 194 4.0 0.0 0.00 0.00 0.00 68 1011.8
20260503054003 40 194 5.0 0.0 0.00 0.00 0.00 67 1011.8
20260503053518 41 194 5.0 0.0 0.00 0.00 0.00 66 1011.7
20260503053032 41 196 5.0 0.0 0.00 0.00 0.00 65 1011.7
20260503052549 41 192 6.0 0.0 0.00 0.00 0.00 65 1011.6
20260503052001 41 193 5.0 0.0 0.00 0.00 0.00 65 1011.4
20260503051520 41 196 4.0 0.0 0.00 0.00 0.00 65 1011.5
20260503051033 41 194 4.0 0.0 0.00 0.00 0.00 65 1011.4
20260503050545 42 194 5.0 0.0 0.00 0.00 0.00 64 1011.3
20260503050101 42 196 5.0 0.0 0.00 0.00 0.00 64 1011.6
20260503045516 42 189 5.0 0.0 0.00 0.00 0.00 64 1011.5
20260503045028 42 188 6.0 0.0 0.00 0.00 0.00 63 1011.7
20260503044543 43 184 6.0 0.0 0.00 0.00 0.00 62 1011.6
20260503044055 44 188 5.0 0.0 0.00 0.00 0.00 61 1011.5
20260503043502 45 188 6.0 0.0 0.00 0.00 0.00 58 1011.5
20260503043034 46 196 6.0 0.0 0.00 0.00 0.00 56 1011.4
20260503042535 46 206 6.0 0.0 0.00 0.00 0.00 55 1011.6
20260503042052 46 200 5.0 0.0 0.00 0.00 0.00 55 1011.6
20260503041508 46 202 5.0 0.0 0.00 0.00 0.00 56 1011.5
20260503041022 46 91 4.0 0.0 0.00 0.00 0.00 55 1011.4
20260503040541 46 91 4.0 0.0 0.00 0.00 0.00 55 1011.4
20260503040101 47 91 3.0 0.0 0.00 0.00 0.00 54 1011.3
20260503035506 48 91 2.0 0.0 0.00 0.00 0.00 52 1011.4
20260503035022 48 91 2.0 0.0 0.00 0.00 0.00 51 1011.3
20260503034543 49 91 2.0 0.0 0.00 0.00 0.00 50 1011.1
20260503034048 49 91 3.0 0.0 0.00 0.00 0.00 50 1011.0
20260503033603 49 91 4.0 0.0 0.00 0.00 0.00 49 1011.0
20260503033019 50 91 4.0 0.0 0.00 0.00 0.00 48 1011.0
20260503032525 51 105 3.0 0.0 0.00 0.00 0.00 46 1010.9
20260503032036 53 57 2.0 0.0 0.00 0.00 0.00 43 1010.9
20260503031548 54 342 4.0 0.0 0.00 0.00 0.00 41 1010.8
20260503031102 54 342 5.0 0.0 0.00 0.00 0.00 40 1010.6
20260503030513 54 342 6.0 0.0 0.00 0.00 0.00 40 1010.5
20260503030028 55 342 8.0 0.0 0.00 0.00 0.00 39 1010.4
20260503025545 55 341 10.0 0.0 0.00 0.00 0.00 39 1010.4
20260503025056 56 342 12.0 0.0 0.00 0.00 0.00 38 1010.3
20260503024507 57 336 14.0 0.0 0.00 0.00 0.00 36 1010.1
20260503024018 57 322 10.0 0.0 0.00 0.00 0.00 35 1010.1
20260503023532 57 336 5.0 0.0 0.00 0.00 0.00 36 1010.1
20260503023057 57 350 3.0 0.0 0.00 0.00 0.00 33 1010.1
20260503022604 57 240 3.0 0.0 0.00 0.00 0.00 32 1010.1
20260503022014 57 208 4.0 0.0 0.00 0.00 0.00 34 1009.8
20260503021540 58 184 4.0 0.0 0.00 0.00 0.00 33 1009.7
20260503021043 59 184 5.0 0.0 0.00 0.00 0.00 32 1009.6
20260503020555 59 188 5.0 0.0 0.00 0.00 0.00 30 1009.6
20260503020003 60 198 6.0 0.0 0.00 0.00 0.00 29 1009.4
20260503015518 61 205 7.0 0.0 0.00 0.00 0.00 27 1009.5
20260503015032 62 186 8.0 0.0 0.00 0.00 0.00 26 1009.6
20260503014547 63 207 7.0 0.0 0.00 0.00 0.00 24 1009.6
20260503014002 63 265 6.0 0.0 0.00 0.00 0.00 20 1009.5
20260503013515 64 205 6.0 0.0 0.00 0.00 0.00 25 1009.5
20260503013032 64 191 6.0 0.0 0.00 0.00 0.00 24 1009.5
20260503012548 63 197 6.0 0.0 0.00 0.00 0.00 24 1009.6
20260503012102 63 209 6.0 0.0 0.00 0.00 0.00 24 1009.6
20260503011518 63 216 7.0 0.0 0.00 0.00 0.00 24 1009.6
20260503011035 63 209 7.0 0.0 0.00 0.00 0.00 24 1009.8
20260503010553 63 215 9.0 0.0 0.00 0.00 0.00 23 1009.9
20260503010001 64 206 12.0 0.0 0.00 0.00 0.00 22 1009.9
20260503005521 64 227 11.0 0.0 0.00 0.00 0.00 22 1010.0
20260503005032 65 226 9.0 0.0 0.00 0.00 0.00 21 1010.1
20260503004600 65 179 8.0 0.0 0.00 0.00 0.00 21 1010.0
20260503004005 64 190 8.0 0.0 0.00 0.00 0.00 21 1010.1
20260503003524 64 188 8.0 0.0 0.00 0.00 0.00 21 1010.1
20260503003100 64 194 8.0 0.0 0.00 0.00 0.00 22 1010.1
20260503002601 65 207 9.0 0.0 0.00 0.00 0.00 21 1010.1
20260503002014 65 191 10.0 0.0 0.00 0.00 0.00 20 1010.1
20260503001534 65 208 10.0 0.0 0.00 0.00 0.00 20 1010.0
20260503001055 64 207 11.0 0.0 0.00 0.00 0.00 19 1010.1
20260503000508 64 232 12.0 0.0 0.00 0.00 0.00 20 1010.0
20260503000022 64 203 10.0 0.0 0.00 0.00 0.00 21 1010.1
20260502235539 65 234 10.0 0.0 0.00 0.00 0.00 20 1010.2
20260502235104 65 239 11.0 0.0 0.00 0.00 0.00 19 1010.2
20260502234515 64 244 12.0 0.0 0.00 0.00 0.00 20 1010.1
20260502234032 65 241 12.0 0.0 0.00 0.00 0.00 20 1010.2
20260502233549 65 263 12.0 0.0 0.00 0.00 0.00 19 1010.2
20260502233006 65 234 10.0 0.0 0.00 0.00 0.00 20 1010.2
20260502232524 65 360 10.0 0.0 0.00 0.00 0.00 17 1010.2
20260502232042 65 250 11.0 0.0 0.00 0.00 0.00 19 1010.2
20260502231600 65 233 10.0 0.0 0.00 0.00 0.00 19 1010.2
20260502231016 65 247 9.0 0.0 0.00 0.00 0.00 19 1010.2
20260502230535 65 360 10.0 0.0 0.00 0.00 0.00 19 1010.4
20260502230055 65 252 10.0 0.0 0.00 0.00 0.00 18 1010.4
20260502225506 66 249 7.0 0.0 0.00 0.00 0.00 18 1010.4
20260502225021 66 220 7.0 0.0 0.00 0.00 0.00 17 1010.5
20260502224541 66 232 7.0 0.0 0.00 0.00 0.00 17 1010.6
20260502224057 66 179 7.0 0.0 0.00 0.00 0.00 18 1010.6
20260502223512 66 269 7.0 0.0 0.00 0.00 0.00 18 1010.6
20260502223030 66 126 9.0 0.0 0.00 0.00 0.00 19 1010.7
20260502222544 67 151 9.0 0.0 0.00 0.00 0.00 17 1010.7
20260502222104 67 209 8.0 0.0 0.00 0.00 0.00 18 1010.7
20260502221515 67 196 8.0 0.0 0.00 0.00 0.00 18 1010.8
20260502221032 67 146 8.0 0.0 0.00 0.00 0.00 21 1011.0
20260502220550 67 181 8.0 0.0 0.00 0.00 0.00 17 1011.0
20260502220003 67 178 10.0 0.0 0.00 0.00 0.00 17 1011.1
20260502215518 67 196 9.0 0.0 0.00 0.00 0.00 18 1011.1
20260502215038 67 219 7.0 0.0 0.00 0.00 0.00 18 1011.2
20260502214556 67 188 7.0 0.0 0.00 0.00 0.00 18 1011.3
20260502214013 66 182 6.0 0.0 0.00 0.00 0.00 18 1011.4
20260502213524 66 169 7.0 0.0 0.00 0.00 0.00 19 1011.6
20260502213058 66 147 8.0 0.0 0.00 0.00 0.00 17 1011.7
20260502212601 67 183 8.0 0.0 0.00 0.00 0.00 17 1011.8
20260502212013 67 176 7.0 0.0 0.00 0.00 0.00 18 1011.9
20260502211532 67 134 7.0 0.0 0.00 0.00 0.00 17 1012.0
20260502211048 66 197 6.0 0.0 0.00 0.00 0.00 17 1012.1
20260502210605 66 202 6.0 0.0 0.00 0.00 0.00 17 1012.2